Preview of NWS' New Version of Forecast
This preview is not operational and should not be used for support decisions.

Regional Weather Roundup (RWR)

Issued by Philadelphia/Mt Holly (PHI)

                            
000
ASUS41 KPHI 260512
RWRPHI

REGIONAL WEATHER ROUNDUP
NATIONAL WEATHER SERVICE MOUNT HOLLY NJ
100 AM EDT SUN MAY 26 2019

NOTE:  "FAIR" INDICATES FEW OR NO CLOUDS BELOW 12,000 FEET WITH NO
SIGNIFICANT WEATHER AND/OR OBSTRUCTIONS TO VISIBILITY.

 * = STATION DOES NOT REPORT PRECIPITATION (E.G. RAIN, SNOW, ETC.) 
        OR FOG.

NJZ015>026-260600-
SOUTHERN NEW JERSEY
  
CITY           SKY/WX    TMP DP  RH WIND       PRES   REMARKS
POMONA         FAIR      65  61  87 S9        30.04F                  
WILDWOOD*      MOCLDY    66  62  87 S14G21    30.04F                  
MILLVILLE      CLOUDY    65  62  90 S3        30.03F                  
WRIGHTSTOWN    MOCLDY    60  54  79 SW3       30.02                   
MOUNT HOLLY    MOCLDY    61  56  83 CALM      30.05F                  
TRENTON        CLOUDY    62  55  77 SW5       30.04F                  

$$
NJZ001>014-260600-
NORTHERN NEW JERSEY
  
CITY           SKY/WX    TMP DP  RH WIND       PRES   REMARKS
SUSSEX         LGT RAIN  59  57  93 CALM      30.03S                  
ANDOVER*         N/A     60  54  80 S3        30.02F                  
MORRISTOWN     CLOUDY    61  52  72 S6        30.03F                  
NEWARK         CLOUDY    63  53  70 S8        30.03F                  
TETERBORO      CLOUDY    63  52  67 S9        30.01F                  
CALDWELL       CLOUDY    64  52  64 VRB6      30.03F                  
SOMERVILLE     HVY RAIN  61  54  77 S5        30.02F                  
ALLAIRE*       CLOUDY    61  54  77 SW6       30.06F                  
TOMS RIVER*    MOCLDY    61  57  87 SW3       30.05F FOG              

$$
PAZ043-044-047-054-055-060>062-066>071-260600-
EASTERN PENNSYLVANIA
  
CITY           SKY/WX    TMP DP  RH WIND       PRES   REMARKS
PHILADELPHIA   LGT RAIN  65  59  81 SW5       30.07R                  
NORTH PHILA    LGT RAIN  64  55  72 SW5       30.06S                  
BLUE BELL*     LGT RAIN  62  59  90 S5        30.05S                  
DOYLESTOWN     LGT RAIN  63  55  75 VRB5      30.03F                  
QUAKERTOWN*    PTCLDY    63  57  82 S6        30.03                   
PERKASIE*      CLOUDY    61  59  94 S3        30.05F                  
POTTSTOWN      MOCLDY    61  57  87 S3        30.05F                  
LANCASTER      CLOUDY    63  60  90 SE5       30.01F                  
COATESVILLE    CLOUDY    61  59  94 CALM      30.05F                  
WEST CHESTER   CLOUDY    63  59  88 CALM      30.05S                  
READING        CLOUDY    63  60  90 S7        30.00F                  
ALLENTOWN      CLOUDY    64  56  75 SW6       30.03F                  
QN CITY/ALNTWN CLOUDY    63  57  82 CALM      30.04F                  
MOUNT POCONO   LGT RAIN  57  57 100 SW8       30.02F                  
HAZLETON       MOCLDY    59  55  88 SE3       30.05F                  
LEHIGHTON      CLOUDY    61  61 100 CALM      30.02F                  
WILKES BARRE   CLOUDY    63  61  93 CALM      29.99F                  

$$
DEZALL-MDZ008-012-015-019-020-260600-
DELAWARE AND EASTERN MARYLAND
  
CITY           SKY/WX    TMP DP  RH WIND       PRES   REMARKS
WILMINGTON     LGT RAIN  64  61  90 S3        30.06R                  
DOVER          MOCLDY    68  62  83 SW5       30.02F THUNDER          
CHESWOLD         N/A     64  63  94 W10G17    30.09R FOG              
GEORGETOWN     MOCLDY    71  64  78 S13       30.04F                  
EASTON         LGT RAIN  71  68  89 S7        30.06S                  
STEVENSVILLE   MOCLDY    70  70 100 SW6       30.05R FOG              
PATUXENT       TSTM      71  70  96 S3        30.02                   
OCEAN CITY     CLOUDY    68  64  87 SW15G23   30.06F                  
WALLOPS ISLAND FAIR      70  67  90 S15       30.06F                  
CAMBRIDGE      PTCLDY    72  68  88 S9G16     30.03F                  
SALISBURY      FAIR      70  66  87 S10       30.04F                  

$$
PAZ001-021-NYZ056-072-MDZ011-DCZ001-260600-
OTHER NEARBY LOCATIONS
  
CITY           SKY/WX    TMP DP  RH WIND       PRES   REMARKS
HARRISBURG     FAIR      68  65  90 SE6       29.99F                  
STATE COLLEGE  FAIR      65  64  95 SW8       30.01S                  
WILLIAMSPORT   CLOUDY    66  64  93 S6        29.96F                  
BINGHAMTON     CLOUDY    61  60  97 SW10      29.95F                  
NEW YORK CITY  CLOUDY    62  52  69 VRB6      30.05                   
BALTIMORE      MOCLDY    69  64  84 SE5       30.03S                  
WASHINGTON DC  CLOUDY    71  66  84 S3        30.03R THUNDER          

$$